User: anonymous   Login
Location: Unspecified
(0.0000°N, 0.0000°E)
Time: 11:49:18
(UTC+00:00)
Language:

GGSE 4 - Orbit

View from above orbital plane
View from above orbital plane
View from above satellite
View from above satellite

Ground track
Ground track

The orbit data is extracted from the following two-line orbital elements,

1  2828U 67053C   18197.95327882 -.00000011 +00000-0 +30078-4 0  9996
2  2828 069.9710 151.2677 0009527 315.9182 100.8218 13.97409268604127
Epoch (UTC): 16 July 2018 22:52:43
Eccentricity: 0.0009527
inclination: 69.9710°
perigee height: 896 km
apogee height: 910 km
right ascension of ascending node: 151.2677°
argument of perigee: 315.9182°
revolutions per day: 13.97409268
mean anomaly at epoch: 100.8218°
orbit number at epoch: 60412

The dashed part of the orbit path shows where the satellite is in the earth's shadow,  

DLR